[[{"header":{"parameterUnit":"m.s-1","parameterCategory":1,"la1":30.2991,"la2":30.254,"lo1":-89.0895,"lo2":-89.0444,"dy":0.0017,"dx":0.0017,"nx":28,"ny":28,"refTime":"2024-02-05T03:00:00:Z","depth":0,"parameterNumber":2,"parameterNumberName":"U-component_of_WINDS"},"data":[0,0,0,0,0,0,0,0,0,0,0,0,0,0,0,0,0,0,0,0,0,0,0,0,0,0,0,0,0,0,0,0,0,0,0,0,0,0,0,0,0,0,0,0,0,0,0,0,0,0,0,0,0,0,0,0,0,0,1.3938,1.3937,0,1.3889,1.3888,1.3887,1.3841,1.384,1.384,1.3839,1.3788,1.3787,1.3786,0,0,0,0,0,0,0,0,0,0,0,0,0,1.3993,1.3992,1.3938,1.3937,1.3937,1.3889,1.3888,1.3887,1.3841,1.384,1.384,1.3839,1.3788,1.3787,1.3786,0,0,0,0,0,0,0,0,0,0,0,0,0,1.3959,1.3992,1.3938,1.3908,1.3905,1.3889,1.3888,1.3887,1.3841,1.384,1.3839,1.3839,1.3789,1.3787,1.3786,1.3796,0,0,1.3782,1.3782,0,0,0,0,0,0,0,0,1.3961,1.3957,1.3913,1.391,1.3906,1.387,1.3888,1.3857,1.3841,1.3865,1.3839,1.3838,1.3816,1.3812,1.3805,1.3794,1.3791,1.3782,1.3782,1.3781,1.3781,0,0,0,0,0,0,0,1.3963,1.3959,1.3918,1.3912,1.3908,1.3897,1.3891,1.3882,1.3846,1.3863,1.386,1.3854,1.3814,1.3806,1.3803,1.3791,1.3782,1.3781,1.378,1.378,1.3786,1.3787,0,0,0,0,0,0,1.397,1.3961,1.392,1.3917,1.3932,1.3897,1.389,1.3882,1.3846,1.384,1.3855,1.3852,1.3809,1.3805,1.3802,1.3811,1.3781,1.378,1.3779,1.3785,1.3787,1.3788,0,0,0,0,0,0,1.3971,1.3967,1.3922,1.3938,1.3931,1.3897,1.3888,1.3882,1.3874,1.384,1.3833,1.3854,1.3808,1.3803,1.3798,1.3809,1.3779,1.3778,1.3784,1.3786,1.3787,1.3831,0,0,0,0,0,0,1.3973,1.3968,1.3971,1.3938,1.3931,1.3919,1.3889,1.3882,1.3872,1.3868,1.3837,1.3831,1.3807,1.38,1.3797,1.3807,1.3777,1.3783,1.3785,1.3787,1.3828,1.3834,1.3838,0,0,0,0,0,1.3975,1.3985,1.3971,1.3966,1.3934,1.392,1.3916,1.3888,1.3873,1.3877,1.3855,1.3832,1.3809,1.38,1.3796,1.3806,1.3782,1.3785,1.3787,1.3826,1.3833,1.3838,0,0,0,0,0,0,1.4019,1.398,1.3964,1.3964,1.3946,1.3912,1.3915,1.3895,1.3881,1.3877,1.3843,1.3837,1.3836,1.382,1.3811,1.3814,1.3792,1.3794,1.3824,1.383,1.3835,1.3839,1.3776,0,0,0,0,0,1.4028,1.402,1.3987,1.3989,1.3981,1.395,1.3943,1.3923,1.3903,1.3895,1.3873,1.3854,1.3842,1.3835,1.3822,1.3826,1.3819,1.3831,1.3836,1.384,1.3842,1.3844,1.3849,1.3794,1.3794,1.3794,0,0,1.4048,1.4026,1.4022,1.3998,1.3981,1.3974,1.3944,1.3937,1.3931,1.3894,1.3888,1.3871,1.3848,1.3848,1.3846,1.3835,1.3855,1.3843,1.3846,1.3845,1.3846,1.3851,1.3856,1.3796,1.3795,1.3795,0,0,1.408,1.4062,1.4063,1.4047,1.4023,1.4003,1.4003,1.3973,1.3961,1.3954,1.3926,1.3919,1.39,1.3885,1.3874,1.3903,1.3882,1.39,1.3925,1.3927,1.3932,1.3935,1.3946,1.395,1.3901,1.3901,1.3901,0,1.4107,1.4095,1.4065,1.4061,1.4051,1.4017,1.4018,1.4005,1.3978,1.3972,1.3959,1.3935,1.3917,1.3913,1.392,1.3913,1.3913,1.3903,1.3933,1.3937,1.394,1.395,1.3954,1.3904,1.3903,1.3903,1.3903,0,1.413,1.4122,1.4126,1.4101,1.4092,1.409,1.4061,1.4055,1.4036,1.4017,1.4012,1.3989,1.3972,1.397,1.3951,1.3964,1.3958,1.394,1.3917,1.3948,1.3957,1.396,1.3907,1.3906,1.3905,1.3905,0,0,1.4187,1.4147,1.4149,1.4138,1.411,1.4103,1.41,1.4084,1.408,1.4063,1.406,1.4045,1.4029,1.4018,1.3997,1.3999,1.4024,1.3981,1.398,1.399,1.4038,1.4052,1.4056,1.401,1.4011,1.4011,1.404,0,1.4214,1.4207,1.4181,1.4182,1.4175,1.4144,1.4141,1.4124,1.4106,1.4098,1.4079,1.4069,1.4048,1.4041,1.4042,1.4021,1.4033,1.4019,1.4008,1.4008,1.4015,1.4061,1.4075,1.4103,1.4043,1.4044,1.4044,0,1.4245,1.4231,1.4231,1.4204,1.42,1.4199,1.4182,1.4174,1.4155,1.4142,1.413,1.4108,1.4104,1.4083,1.4077,1.4068,1.4062,1.4052,1.4052,1.405,1.4028,1.406,1.4111,1.4116,1.4049,1.4049,1.4048,0,1.4287,1.4268,1.4266,1.4258,1.4226,1.4226,1.4213,1.4192,1.4184,1.417,1.4165,1.415,1.4142,1.4132,1.4107,1.4094,1.4104,1.4081,1.4094,1.4095,1.4097,1.4097,1.4148,1.4093,1.4093,1.4093,1.4093,0,1.4321,1.4322,1.4285,1.4284,1.4285,1.4256,1.4258,1.4241,1.4224,1.4219,1.4191,1.4187,1.4154,1.4147,1.4127,1.4126,1.4122,1.4112,1.4107,1.4115,1.4116,1.411,1.4108,1.4094,1.4094,1.4094,1.4093,0,1.4368,1.4343,1.4339,1.431,1.4303,1.4305,1.428,1.4278,1.426,1.4254,1.4251,1.4222,1.4212,1.4186,1.4169,1.4156,1.4161,1.415,1.4167,1.4164,1.4178,1.4178,1.4227,1.4233,1.4174,1.4175,1.4175,0,1.4391,1.4392,1.4363,1.4358,1.4347,1.4339,1.4331,1.4303,1.4296,1.4274,1.4275,1.4263,1.4252,1.4238,1.4215,1.4203,1.4193,1.4211,1.419,1.4199,1.4194,1.4194,1.4194,1.4215,1.4216,1.4217,1.4217,0,1.4435,1.4423,1.4413,1.4399,1.4391,1.4379,1.4365,1.4362,1.433,1.4324,1.4314,1.4306,1.4289,1.4278,1.4262,1.4249,1.4228,1.4224,1.4226,1.4235,1.4245,1.424,1.418,1.4223,1.4222,1.4222,1.4222,1.4221,1.4471,1.4471,1.4451,1.4441,1.4428,1.4416,1.4413,1.4394,1.4386,1.437,1.4354,1.4346,1.4327,1.4304,1.4292,1.4286,1.4275,1.4278,1.4279,1.428,1.4284,1.4246,1.4283,1.4283,1.4282,1.4282,1.4282,0,1.4514,1.45,1.4492,1.4474,1.4466,1.4448,1.4432,1.4427,1.442,1.4404,1.4394,1.4384,1.4373,1.435,1.4338,1.4337,1.4327,1.4335,1.4335,1.4332,1.4294,1.4294,1.4343,1.4343,1.4343,1.4343,1.4343,1.4343,1.4536,1.4535,1.452,1.4513,1.4498,1.4491,1.4483,1.4472,1.446,1.4449,1.444,1.4425,1.4407,1.4393,1.4383,1.4377,1.4374,1.4384,1.4375,1.434,1.4335,1.4329,1.4328,1.4384,1.4384,1.4413,1.4414,1.4414]},{"header":{"parameterUnit":"m.s-1","parameterCategory":1,"la1":30.2991,"la2":30.254,"lo1":-89.0895,"lo2":-89.0444,"dy":0.0017,"dx":0.0017,"nx":28,"ny":28,"refTime":"2024-02-05T03:00:00:Z","depth":0,"parameterNumber":3,"parameterNumberName":"V-component_of_WINDS"},"data":[0,0,0,0,0,0,0,0,0,0,0,0,0,0,0,0,0,0,0,0,0,0,0,0,0,0,0,0,0,0,0,0,0,0,0,0,0,0,0,0,0,0,0,0,0,0,0,0,0,0,0,0,0,0,0,0,0,0,-7.6034,-7.6036,0,-7.6176,-7.6178,-7.618,-7.6121,-7.6118,-7.6115,-7.6112,-7.6251,-7.6257,-7.6264,0,0,0,0,0,0,0,0,0,0,0,0,0,-7.5708,-7.5714,-7.6034,-7.6036,-7.6038,-7.6176,-7.6178,-7.618,-7.6122,-7.6118,-7.6114,-7.611,-7.6248,-7.6256,-7.6265,0,0,0,0,0,0,0,0,0,0,0,0,0,-7.5849,-7.5716,-7.6034,-7.6026,-7.6026,-7.6176,-7.6178,-7.6181,-7.6123,-7.6118,-7.6113,-7.6108,-7.6246,-7.6256,-7.6266,-7.643,0,0,-7.6297,-7.6301,0,0,0,0,0,0,0,0,-7.5841,-7.5861,-7.6025,-7.6027,-7.6028,-7.6126,-7.6114,-7.6264,-7.6124,-7.6086,-7.6112,-7.6106,-7.6213,-7.6225,-7.6263,-7.6436,-7.6442,-7.6298,-7.6304,-7.6309,-7.6311,0,0,0,0,0,0,0,-7.5832,-7.5855,-7.609,-7.6028,-7.6029,-7.6013,-7.6028,-7.6142,-7.6176,-7.6089,-7.6085,-7.6103,-7.6212,-7.6253,-7.6266,-7.6444,-7.6298,-7.6307,-7.6313,-7.6317,-7.676,-7.6765,0,0,0,0,0,0,-7.5822,-7.5847,-7.6086,-7.6094,-7.5921,-7.6023,-7.604,-7.61,-7.6174,-7.6181,-7.6107,-7.61,-7.6238,-7.6254,-7.627,-7.6468,-7.6308,-7.6318,-7.6324,-7.6754,-7.6761,-7.6767,0,0,0,0,0,0,-7.5816,-7.5844,-7.608,-7.597,-7.5999,-7.6034,-7.6102,-7.6105,-7.6146,-7.6188,-7.6193,-7.6143,-7.6235,-7.6256,-7.6391,-7.6472,-7.6323,-7.6332,-7.6748,-7.6756,-7.6764,-7.6865,0,0,0,0,0,0,-7.5807,-7.5842,-7.5906,-7.5972,-7.6005,-7.62,-7.6107,-7.6111,-7.6164,-7.6156,-7.6223,-7.6229,-7.6233,-7.6376,-7.6401,-7.6484,-7.634,-7.674,-7.6751,-7.6761,-7.6854,-7.6876,-7.6894,0,0,0,0,0,-7.5795,-7.5927,-7.591,-7.5939,-7.6086,-7.6205,-7.6224,-7.6227,-7.6171,-7.6235,-7.6262,-7.6227,-7.6459,-7.6391,-7.6418,-7.6505,-7.6735,-7.6748,-7.6761,-7.6846,-7.6872,-7.6893,0,0,0,0,0,0,-7.5867,-7.5935,-7.5917,-7.6074,-7.6135,-7.6195,-7.6276,-7.6254,-7.6329,-7.6318,-7.6316,-7.6332,-7.6472,-7.6501,-7.6424,-7.6668,-7.6589,-7.6607,-7.6644,-7.6669,-7.6688,-7.6678,-7.6349,0,0,0,0,0,-7.5901,-7.5995,-7.6048,-7.6182,-7.6214,-7.624,-7.6292,-7.6289,-7.6351,-7.6375,-7.6412,-7.6472,-7.6558,-7.6615,-7.6696,-7.6858,-7.6872,-7.6931,-7.6951,-7.6967,-7.6984,-7.7072,-7.71,-7.6809,-7.6808,-7.6808,0,0,-7.5973,-7.6022,-7.608,-7.6198,-7.6244,-7.634,-7.6261,-7.6365,-7.6435,-7.639,-7.6521,-7.6551,-7.6616,-7.6766,-7.6834,-7.6795,-7.7067,-7.6983,-7.6996,-7.7004,-7.7088,-7.7116,-7.714,-7.6817,-7.6816,-7.6814,0,0,-7.6152,-7.6199,-7.6316,-7.6365,-7.6438,-7.6454,-7.6483,-7.6547,-7.6566,-7.6698,-7.6666,-7.6749,-7.6897,-7.6946,-7.6991,-7.7191,-7.7161,-7.7217,-7.732,-7.7407,-7.743,-7.745,-7.7522,-7.7548,-7.7233,-7.7233,-7.7233,0,-7.6231,-7.6376,-7.6378,-7.6486,-7.6539,-7.6505,-7.6623,-7.667,-7.6764,-7.6801,-7.6756,-7.6944,-7.6985,-7.7147,-7.7196,-7.7233,-7.7264,-7.7209,-7.7426,-7.7447,-7.7466,-7.7535,-7.7562,-7.724,-7.7239,-7.7238,-7.7238,0,-7.647,-7.6571,-7.6656,-7.6752,-7.6814,-7.6926,-7.6945,-7.7007,-7.6999,-7.702,-7.7155,-7.7204,-7.7296,-7.7334,-7.7326,-7.7495,-7.7469,-7.7426,-7.7346,-7.75,-7.7565,-7.7591,-7.7249,-7.7246,-7.7245,-7.7243,0,0,-7.6698,-7.6795,-7.6827,-7.6871,-7.6949,-7.7026,-7.7136,-7.7229,-7.7282,-7.7348,-7.7441,-7.7568,-7.753,-7.758,-7.7577,-7.7653,-7.781,-7.7601,-7.7602,-7.7639,-7.8,-7.8033,-7.8063,-7.7791,-7.7796,-7.78,-7.7995,0,-7.6884,-7.7081,-7.7087,-7.7266,-7.736,-7.7329,-7.7425,-7.7483,-7.7506,-7.7587,-7.761,-7.7702,-7.7643,-7.7674,-7.7748,-7.7775,-7.7883,-7.7761,-7.7876,-7.788,-7.7862,-7.8097,-7.8131,-7.8313,-7.802,-7.8024,-7.8027,0,-7.7128,-7.7206,-7.7395,-7.7462,-7.7501,-7.7588,-7.7674,-7.7752,-7.7816,-7.7827,-7.7885,-7.7871,-7.7983,-7.79,-7.8053,-7.7971,-7.8018,-7.8039,-7.8046,-7.8057,-7.7964,-7.8115,-7.8371,-7.8398,-7.8067,-7.8064,-7.8061,0,-7.7277,-7.7428,-7.7561,-7.7599,-7.768,-7.7742,-7.7778,-7.7838,-7.7894,-7.7968,-7.8004,-7.8089,-7.8136,-7.8202,-7.8211,-7.8149,-7.8366,-7.8283,-7.8377,-7.8377,-7.8424,-7.8422,-7.8692,-7.8454,-7.8453,-7.8453,-7.8452,0,-7.7485,-7.7602,-7.763,-7.7712,-7.7842,-7.7848,-7.7976,-7.8007,-7.8061,-7.8147,-7.8125,-7.8206,-7.8213,-7.8296,-7.8304,-7.843,-7.8451,-7.8463,-7.8463,-7.8466,-7.8464,-7.8497,-7.8485,-7.846,-7.8458,-7.8457,-7.8456,0,-7.7673,-7.7696,-7.784,-7.7906,-7.7925,-7.8018,-7.8073,-7.8151,-7.8172,-7.8282,-7.8308,-7.8341,-7.8438,-7.8454,-7.8566,-7.8572,-7.8724,-7.8711,-7.8703,-7.8702,-7.8796,-7.8787,-7.9097,-7.9138,-7.8872,-7.8875,-7.8877,0,-7.7804,-7.7895,-7.7971,-7.8029,-7.8069,-7.8162,-7.822,-7.8228,-7.8289,-7.837,-7.8438,-7.8533,-7.861,-7.8766,-7.8799,-7.8885,-7.8875,-7.8978,-7.8887,-7.8887,-7.8878,-7.8873,-7.8882,-7.8995,-7.8998,-7.9,-7.9002,0,-7.8036,-7.8044,-7.8129,-7.822,-7.829,-7.836,-7.8427,-7.8475,-7.8492,-7.8561,-7.8662,-7.8722,-7.8839,-7.8934,-7.902,-7.9055,-7.9032,-7.903,-7.9057,-7.906,-7.9053,-7.9059,-7.8751,-7.9023,-7.9021,-7.9019,-7.9018,-7.9018,-7.8201,-7.828,-7.8347,-7.8443,-7.8495,-7.8559,-7.8636,-7.8668,-7.8753,-7.8851,-7.885,-7.896,-7.9023,-7.9137,-7.9178,-7.9263,-7.9229,-7.9268,-7.9278,-7.9287,-7.9297,-7.9039,-7.9278,-7.9278,-7.9277,-7.9277,-7.9276,0,-7.8432,-7.8474,-7.8563,-7.8659,-7.8735,-7.8709,-7.8781,-7.8846,-7.8944,-7.9006,-7.9083,-7.9199,-7.9291,-7.9331,-7.9422,-7.9482,-7.9474,-7.9506,-7.9502,-7.951,-7.9321,-7.929,-7.9511,-7.9511,-7.9511,-7.9511,-7.9511,-7.9511,-7.8562,-7.8695,-7.8711,-7.887,-7.891,-7.9021,-7.9065,-7.9123,-7.9172,-7.9304,-7.9382,-7.9408,-7.9461,-7.9556,-7.9639,-7.9648,-7.9683,-7.972,-7.9724,-7.9547,-7.9523,-7.9501,-7.9471,-7.9727,-7.9727,-7.9906,-7.9908,-7.9909]}]]